Погода в Коблево

Украина / Николаевская область     46°39′37″N   31°12′25″E
темп.,
°C
ветер,
м/с
пор.,
м/с
влажн.,
%
обл.,
%
осадки,
мм/ч
давл.,
гПа
погр.,
м
19 сентября, вс
вс1900:00+16сз358720 0.0 1009135
03:00+15сз36878 0.0 1009148
06:00+14сз368486 0.0 1009145
09:00+17зсз23675 0.0 1010291
12:00+21зюз344888 0.0 10091227
15:00+21ююз675498 0.1 1009924
18:00+20ююз6962100 0.1 1008488
21:00+16ссз7106355 0.1 1010386
20 сентября, пн
пн2000:00+13сз5106437 0.0 1011408
03:00+11сз496782 0.0 1012457
06:00+11сз596782 0.0 1012476
09:00+12зсз59625 0.0 1013573
12:00+17зсз68463 0.0 10131288
15:00+19зсз683924 0.0 10121932
18:00+18сз564214 0.0 10121419
21:00+13ссз6959100 0.0 1014454
21 сентября, вт
вт2100:00+12ссз6864100 0.1 1016538
03:00+11сз61058100 0.1 1016741
06:00+10сз5106258 0.0 1017883
09:00+10сз7105616 0.0 10181295
12:00+12сз895377 0.0 10181367
15:00+13сз8105456 0.0 10191295
18:00+13сз794974 0.0 10191534
21:00+11сз585399 0.0 1020804
22 сентября, ср
ср2200:00+10сз475576 0.0 1020497
03:00+10сз5858100 0.0 1020759
06:00+9сз5771100 0.0 1020892
09:00+9сз5769100 0.0 10191051
12:00+10сз5659100 0.1 10191174
15:00+10сз6757100 0.1 10181259
18:00+10ссз4560100 0.0 1017970
21:00+9ссз4565100 0.1 1017699
23 сентября, чт
чт2300:00+8сз3571100 0.0 1016379
03:00+8ссз3570100 0.0 1016442
06:00+8ссз3572100 0.1 1015575
09:00+8ссз4578100 0.2 1015794
12:00+10сз556084 0.1 10161231
15:00+11ссз4552100 0.3 10151385
18:00+11ссз3454100 0.1 10161142
21:00+8сз226869 0.1 101739